Starlink 5723

decayed
NORAD ID: 55606 Int'l Des: 2023-020 Owner: SPXS Country: US Constellation: starlink
LEOCIRCULAR
グループ

Starlink 5723について

説明を読み込み中...

高度履歴

Altitude vs Time

uPlot chart will show altitude changes over time

軌道要素

1 55606U 23020AP 23068.75613692 .17864905 90918-5 43708-2 0 9993
2 55606 42.9915 198.4379 0001777 2.5921 357.5097 16.28310459 4061
Epoch: Mar 9, 2023 • Age: 26430 hours

現在のステータス

Position data unavailable
打ち上げ日 Feb 12, 2023
運用期間 3 years
落下予定日 Mar 10, 2023
タイプ internet

技術仕様

分類 Payload
質量 305.00 kg
乾燥質量 290.00 kg
総質量 305.00 kg
長さ 0.20 m
直径 2.80 m
スパン 9.00 m
形状 Box + pan
製造者 SPXS
バスタイプ Starlink
フェーズステータス Reentered
所有者/国 SPXS/US

大規模コンステレーション

Loading constellations...